Tracking 30696 objects as of 15-Jun-2025
HD Live streaming from Space Station
objects crossing your sky now

STARLINK-31181

Track STARLINK-31181 now!
10-day predictions
STARLINK-31181 is classified as:


NORAD ID: 58746
Int'l Code: 2024-005U
Perigee: 489.3 km
Apogee: 491.1 km
Inclination: 43.0 °
Period: 94.3 minutes
Semi major axis: 6861 km
RCS: Unknown
Launch date: January 7, 2024
Source: United States (US)
Launch site: AIR FORCE EASTERN TEST RANGE (AFETR)
Your satellite tracking list
Your tracking list is empty




NASA's NSSDC Master Catalog

Two Line Element Set (TLE):
1 58746U 24005U   25165.94255132  .00001772  00000-0  73908-4 0  9999
2 58746  43.0000 139.6067 0001377 267.0052  93.0642 15.27574388 81330
Source of the keplerian elements: AFSPC